TimeCEST,TemperatureF,Dew PointF,Humidity,Sea Level PressureIn,VisibilityMPH,Wind Direction,Wind SpeedMPH,Gust SpeedMPH,PrecipitationIn,Events,Conditions,WindDirDegrees,DateUTC
12:00 AM,53.6,44.6,72,29.92,-9999.0,East,4.6,-,N/A,,Clear,90,2013-09-25 22:00:00
12:30 AM,51.8,44.6,76,29.92,6.2,Variable,1.2,-,N/A,,Scattered Clouds,0,2013-09-25 22:30:00
1:00 AM,55.4,46.4,72,29.92,6.2,East,4.6,-,N/A,,Scattered Clouds,100,2013-09-25 23:00:00
1:30 AM,53.6,46.4,77,29.92,6.2,ESE,4.6,-,N/A,,Mostly Cloudy,110,2013-09-25 23:30:00
2:00 AM,55.4,44.6,67,29.92,6.2,Variable,3.5,-,N/A,,Scattered Clouds,0,2013-09-26 00:00:00
2:30 AM,55.4,46.4,72,29.89,6.2,ESE,4.6,-,N/A,,Scattered Clouds,120,2013-09-26 00:30:00
3:00 AM,55.4,46.4,72,29.89,6.2,ESE,4.6,-,N/A,,Mostly Cloudy,110,2013-09-26 01:00:00
3:30 AM,55.4,46.4,72,29.89,6.2,Variable,1.2,-,N/A,,Scattered Clouds,0,2013-09-26 01:30:00
4:00 AM,53.6,48.2,82,29.86,6.2,Variable,1.2,-,N/A,,Scattered Clouds,0,2013-09-26 02:00:00
4:30 AM,51.8,46.4,82,29.86,6.2,Variable,3.5,-,N/A,,Scattered Clouds,0,2013-09-26 02:30:00
5:00 AM,50.0,46.4,87,29.86,6.2,Variable,2.3,-,N/A,,Partly Cloudy,0,2013-09-26 03:00:00
5:30 AM,48.2,46.4,93,29.86,-9999.0,Variable,2.3,-,N/A,,Clear,0,2013-09-26 03:30:00
6:00 AM,50.0,46.4,87,29.86,-9999.0,Calm,Calm,-,N/A,,Clear,0,2013-09-26 04:00:00
6:30 AM,50.0,48.2,94,29.86,-9999.0,Calm,Calm,-,N/A,,Clear,0,2013-09-26 04:30:00
7:00 AM,51.8,48.2,88,29.86,-9999.0,Calm,Calm,-,N/A,,Clear,0,2013-09-26 05:00:00
7:30 AM,53.6,48.2,82,29.86,-9999.0,Variable,3.5,-,N/A,,Clear,0,2013-09-26 05:30:00
8:00 AM,53.6,50.0,88,29.86,6.2,Variable,1.2,-,N/A,,Mostly Cloudy,0,2013-09-26 06:00:00
8:30 AM,53.6,50.0,88,29.86,6.2,Calm,Calm,-,N/A,,Mostly Cloudy,0,2013-09-26 06:30:00
9:00 AM,55.4,48.2,77,29.86,-9999.0,Variable,3.5,-,N/A,,Clear,0,2013-09-26 07:00:00
10:00 AM,60.8,51.8,72,29.86,6.2,West,4.6,-,N/A,,Mostly Cloudy,260,2013-09-26 08:00:00
10:30 AM,60.8,53.6,77,29.86,-9999.0,SSW,8.1,-,N/A,,Clear,210,2013-09-26 08:30:00
11:00 AM,62.6,53.6,72,29.86,-9999.0,SSW,5.8,-,N/A,,Clear,210,2013-09-26 09:00:00
11:30 AM,64.4,57.2,77,29.86,-9999.0,WSW,5.8,-,N/A,,Clear,240,2013-09-26 09:30:00
12:00 PM,66.2,57.2,73,29.83,-9999.0,SW,8.1,-,N/A,,Clear,220,2013-09-26 10:00:00
12:30 PM,69.8,59.0,68,29.83,-9999.0,SW,10.4,-,N/A,,Clear,230,2013-09-26 10:30:00
1:00 PM,69.8,57.2,64,29.83,-9999.0,WSW,15.0,-,N/A,,Clear,240,2013-09-26 11:00:00
1:30 PM,71.6,59.0,64,29.83,-9999.0,WSW,15.0,-,N/A,,Clear,250,2013-09-26 11:30:00
2:00 PM,71.6,57.2,60,29.80,-9999.0,WSW,16.1,-,N/A,,Clear,250,2013-09-26 12:00:00
2:30 PM,71.6,55.4,57,29.80,-9999.0,WSW,17.3,-,N/A,,Clear,250,2013-09-26 12:30:00
3:00 PM,71.6,57.2,60,29.80,6.2,West,17.3,-,N/A,,Scattered Clouds,260,2013-09-26 13:00:00
3:30 PM,69.8,53.6,56,29.83,6.2,West,24.2,-,N/A,Rain,Light Rain Showers,280,2013-09-26 13:30:00
4:00 PM,68.0,53.6,60,29.83,6.2,West,20.7,-,N/A,Rain,Light Rain Showers,280,2013-09-26 14:00:00
4:30 PM,66.2,57.2,73,29.83,6.2,West,15.0,-,N/A,Rain,Light Rain Showers,280,2013-09-26 14:30:00
5:00 PM,62.6,57.2,82,29.83,6.2,West,12.7,-,N/A,Rain,Light Rain,280,2013-09-26 15:00:00
5:30 PM,62.6,57.2,82,29.83,-9999.0,West,13.8,-,N/A,,Clear,280,2013-09-26 15:30:00
6:00 PM,62.6,55.4,77,29.83,-9999.0,West,10.4,-,N/A,,Clear,260,2013-09-26 16:00:00
6:30 PM,62.6,57.2,82,29.83,-9999.0,WSW,9.2,-,N/A,,Clear,240,2013-09-26 16:30:00
7:00 PM,60.8,55.4,82,29.83,-9999.0,Variable,1.2,-,N/A,,Clear,0,2013-09-26 17:00:00
7:30 PM,60.8,55.4,82,29.86,-9999.0,Variable,3.5,-,N/A,,Clear,0,2013-09-26 17:30:00
8:00 PM,60.8,55.4,82,29.86,-9999.0,WNW,8.1,-,N/A,,Clear,290,2013-09-26 18:00:00
8:30 PM,60.8,55.4,82,29.86,-9999.0,NW,9.2,-,N/A,,Clear,320,2013-09-26 18:30:00
9:00 PM,59.0,55.4,88,29.89,-9999.0,WNW,11.5,-,N/A,,Clear,290,2013-09-26 19:00:00
9:30 PM,59.0,55.4,88,29.89,-9999.0,West,10.4,-,N/A,,Clear,280,2013-09-26 19:30:00
10:00 PM,59.0,55.4,88,29.92,-9999.0,West,10.4,-,N/A,,Clear,270,2013-09-26 20:00:00
10:30 PM,57.2,53.6,88,29.92,-9999.0,NW,9.2,-,N/A,,Clear,310,2013-09-26 20:30:00
11:00 PM,55.4,53.6,94,29.92,-9999.0,WNW,9.2,-,N/A,,Clear,290,2013-09-26 21:00:00
11:30 PM,55.4,53.6,94,29.95,-9999.0,Variable,1.2,-,N/A,,Clear,0,2013-09-26 21:30:00